www.pogodaiklimat.ru

Погода и климат >> Архив погоды >> Австралия >> Южная Австралия >> Однадатта


ПОГОДА в Однадатте

  • Прогноз погоды в Однадатте
  • Монитор погоды в Однадатте

АРХИВ ПОГОДЫ в Однадатте

Время (UTC), дата Ветер
(напр.,м/с)
 
Видим.   Явления Облачность Т
(С)
Тd
(С)
f
(%)
Тe
(С)
Тes
(С)
Комфортность P
(гПа)
Po
(гПа)
Тmin
(С)
Tmax
(С)
R
(мм)
R24
(мм)
S
(см)
22 16.01 С 7 н/о н/о +36.3 +6.5 16 +34 +34 очень
жарко
1005.7 992.6
23 16.01 С 8 н/о н/о +39.5 +6.0 13 +37 +37 очень
жарко
1005.6 992.5
02 17.01 С 9 н/о н/о +43.3 +5.1 10 +40 +40 очень
жарко
1004.8 991.7
01 17.01 С 10 н/о н/о +43.3 +5.1 10 +40 +40 очень
жарко
1005.3 992.2
04 17.01 С 7 н/о н/о +44.4 +4.4 9 +41 +41 опасность
перегрева
1002.9 989.9
05 17.01 С 7 н/о н/о +45.4 +3.5 8 +42 +42 опасность
перегрева
1001.7 988.7
08 17.01 С 7 н/о н/о +45.1 +4.9 9 +42 +42 опасность
перегрева
999.9 986.9
07 17.01 С 7 н/о н/о +45.4 +5.1 9 +43 +43 опасность
перегрева
1000.2 987.2
10 17.01 С 5 н/о н/о +43.2 +5.0 10 +40 +40 очень
жарко
1000.6 987.6
11 17.01 СВ 6 н/о н/о +42.1 +4.2 10 +39 +39 очень
жарко
1001.1 988.1
14 17.01 СВ 6 н/о н/о +38.1 +3.8 12 +35 +35 очень
жарко
1001.4 988.4
13 17.01 СВ 6 н/о н/о +39.0 +3.2 11 +36 +36 очень
жарко
1001.4 988.4
16 17.01 С 5 н/о н/о +35.9 +4.2 14 +33 +33 жарко 1000.9 987.9
17 17.01 С 4 н/о н/о +35.0 +4.5 15 +32 +32 жарко 1000.5 987.5
20 17.01 ЮЗ 3 н/о н/о +34.3 +4.0 15 +32 +32 жарко 1002.9 989.9
19 17.01 С 5 н/о н/о +34.6 +4.2 15 +32 +32 жарко 1001.3 988.3
22 17.01 Ю 2 н/о н/о +38.1 +6.0 14 +35 +35 очень
жарко
1004.7 991.6
23 17.01 ЮВ 7 н/о н/о +37.6 +10.0 19 +36 +36 очень
жарко
1005.1 992.0
02 18.01 Ю 6 н/о н/о +43.4 +9.0 13 +42 +42 опасность
перегрева
1004.5 991.4
01 18.01 ЮВ 3 н/о н/о +41.2 +9.4 15 +39 +39 очень
жарко
1005.0 991.9
04 18.01 ЮЗ 3 н/о н/о +44.4 +8.6 12 +42 +42 опасность
перегрева
1003.6 990.6
05 18.01 З 9 н/о н/о +42.7 +9.5 14 +41 +41 опасность
перегрева
1003.2 990.2
08 18.01 Ю 15 н/о н/о +37.0 +13.1 24 +37 +37 очень
жарко
1006.5 993.4
07 18.01 Ю 14 н/о н/о +38.2 +13.4 23 +38 +38 очень
жарко
1005.5 992.4
10 18.01 Ю 12 н/о н/о +35.7 +13.2 26 +36 +36 очень
жарко
1009.0 995.9
11 18.01 Ю 11 н/о н/о +35.0 +14.3 29 +36 +36 очень
жарко
1009.5 996.4
14 18.01 Ю 8 н/о н/о +32.0 +15.1 36 +34 +34 душно 1010.3 997.2
13 18.01 Ю 9 н/о н/о +32.4 +15.4 36 +35 +35 душно 1010.5 997.4
16 18.01 Ю 5 н/о н/о +30.7 +14.8 38 +33 +33 душно 1010.2 997.1
17 18.01 Ю 6 н/о н/о +30.0 +14.9 40 +32 +32 жарко 1010.1 997.0
20 18.01 Ю 7 н/о н/о +28.8 +15.3 44 +32 +32 душно 1011.0 997.9
19 18.01 Ю 6 н/о н/о +29.2 +15.0 42 +32 +32 душно 1010.3 997.2
22 18.01 Ю 9 н/о н/о +28.2 +12.9 39 +30 +30 жарко 1012.8 999.6
23 18.01 Ю 9 н/о н/о +28.8 +14.2 41 +31 +31 жарко 1013.0 999.8
02 19.01 В 9 н/о н/о +37.0 +12.4 23 +37 +37 очень
жарко
1012.2 999.0
01 19.01 ЮВ 10 н/о н/о +34.9 +12.5 26 +35 +35 очень
жарко
1012.7 999.5
04 19.01 В 7 н/о н/о +39.0 +12.0 20 +38 +38 очень
жарко
1011.0 997.9
05 19.01 В 7 н/о н/о +41.4 +12.3 18 +41 +41 опасность
перегрева
1009.9 996.8
08 19.01 ЮВ 7 н/о н/о +41.7 +10.8 16 +40 +40 очень
жарко
1008.4 995.3
07 19.01 В 7 н/о н/о +41.9 +11.8 17 +41 +41 опасность
перегрева
1008.8 995.7
10 19.01 ЮВ 8 н/о н/о +40.1 +10.4 17 +39 +39 очень
жарко
1009.2 996.1
11 19.01 ЮВ 8 н/о н/о +39.3 +10.6 18 +38 +38 очень
жарко
1009.8 996.7
14 19.01 ЮВ 9 н/о н/о +34.6 +9.1 21 +33 +33 жарко 1012.4 999.2
13 19.01 ЮВ 9 н/о н/о +36.6 +10.0 20 +35 +35 очень
жарко
1011.8 998.6
16 19.01 Ю 8 н/о н/о +32.3 +6.5 20 +30 +30 жарко 1012.1 998.9
17 19.01 ЮВ 8 н/о н/о +31.5 +7.2 22 +30 +30 жарко 1011.8 998.6
20 19.01 Ю 6 н/о н/о +29.1 +7.7 26 +28 +28 жарко 1012.5 999.3
19 19.01 Ю 6 н/о н/о +29.8 +7.7 25 +29 +29 жарко 1012.1 998.9
22 19.01 ЮВ 8 н/о н/о +30.9 +8.6 25 +30 +30 жарко 1013.4 1000.2
23 19.01 ЮВ 9 н/о н/о +33.1 +8.5 22 +32 +32 жарко 1013.6 1000.4
02 20.01 В 10 н/о н/о +40.3 +8.7 15 +38 +38 очень
жарко
1011.8 998.6
01 20.01 В 9 н/о н/о +37.4 +8.2 17 +35 +35 очень
жарко
1012.3 999.1
04 20.01 В 8 н/о н/о +42.0 +9.0 14 +40 +40 очень
жарко
1010.0 996.9
05 20.01 В 7 н/о н/о +42.8 +8.5 13 +41 +41 опасность
перегрева
1009.1 996.0
08 20.01 ЮВ 9 н/о н/о +42.3 +8.1 13 +40 +40 очень
жарко
1008.1 995.0
07 20.01 ЮВ 7 н/о н/о +43.5 +9.1 13 +42 +42 опасность
перегрева
1008.1 995.0
10 20.01 ЮВ 9 н/о н/о +39.7 +8.2 15 +38 +38 очень
жарко
1009.4 996.3
11 20.01 ЮВ 9 н/о н/о +38.7 +7.4 15 +36 +36 очень
жарко
1010.1 997.0
14 20.01 ЮВ 11 н/о н/о +36.2 +2.3 12 +33 +33 жарко 1010.8 997.7
13 20.01 ЮВ 7 н/о н/о +37.0 +8.8 18 +35 +35 очень
жарко
1010.9 997.8
16 20.01 ЮВ 10 н/о н/о +33.7 +9.0 22 +32 +32 жарко 1010.0 996.9
17 20.01 ЮВ 8 н/о н/о +32.9 +8.4 22 +32 +32 жарко 1009.5 996.4
20 20.01 ЮВ 7 н/о н/о +31.0 +5.4 20 +29 +29 жарко 1009.8 996.7
19 20.01 ЮВ 7 н/о н/о +31.7 +6.7 21 +30 +30 жарко 1009.6 996.5
22 20.01 В 6 н/о н/о +32.0 +3.9 17 +30 +30 жарко 1010.7 997.6
23 20.01 В 7 н/о н/о +34.1 +3.8 15 +31 +31 жарко 1011.0 997.9
02 21.01 В 9 н/о н/о +40.8 +5.8 12 +38 +38 очень
жарко
1009.3 996.2
01 21.01 В 9 н/о н/о +39.4 +5.9 13 +37 +37 очень
жарко
1010.0 996.9
04 21.01 СВ 6 н/о н/о +43.0 +4.9 10 +40 +40 очень
жарко
1008.0 994.9
05 21.01 ЮВ 5 н/о н/о +44.3 +5.8 10 +42 +42 опасность
перегрева
1007.1 994.0
08 21.01 ЮВ 5 н/о н/о +44.5 +6.0 10 +42 +42 опасность
перегрева
1005.4 992.3
07 21.01 СВ 6 н/о н/о +44.0 +5.6 10 +41 +41 опасность
перегрева
1005.7 992.6
10 21.01 ЮВ 8 н/о н/о +42.1 +6.8 12 +40 +40 очень
жарко
1005.9 992.8
11 21.01 ЮВ 11 н/о н/о +40.6 +6.8 13 +38 +38 очень
жарко
1006.7 993.6
14 21.01 ЮВ 6 н/о н/о +36.3 +5.5 15 +34 +34 очень
жарко
1007.7 994.6
13 21.01 В 6 н/о н/о +37.3 +6.3 15 +35 +35 очень
жарко
1007.9 994.8
16 21.01 ЮВ 6 н/о н/о +34.8 +5.3 16 +32 +32 жарко 1007.4 994.3
17 21.01 ЮВ 7 н/о н/о +33.7 +5.3 17 +31 +31 жарко 1007.4 994.3
20 21.01 В 4 н/о н/о +30.2 +5.5 21 +29 +29 жарко 1007.6 994.5
19 21.01 ЮВ 4 н/о н/о +31.5 +5.1 19 +29 +29 жарко 1007.3 994.2
22 21.01 В 6 н/о н/о +35.2 +4.7 15 +32 +32 жарко 1008.3 995.2
23 21.01 В 7 н/о н/о +38.6 +5.3 13 +36 +36 очень
жарко
1008.5 995.4
02 22.01 С 5 н/о н/о +44.2 +7.1 11 +42 +42 опасность
перегрева
1007.7 994.6
01 22.01 С 6 н/о н/о +41.6 +7.6 13 +39 +39 очень
жарко
1008.2 995.1
04 22.01 ЮВ 3 н/о н/о +45.1 +4.9 9 +42 +42 опасность
перегрева
1006.3 993.2
05 22.01 С 5 н/о н/о +45.4 +6.7 10 +43 +43 опасность
перегрева
1005.6 992.5
08 22.01 С 11 н/о н/о +43.9 +5.5 10 +41 +41 опасность
перегрева
1004.0 990.9
07 22.01 В 5 н/о н/о +44.6 +6.1 10 +42 +42 опасность
перегрева
1004.4 991.3
10 22.01 В 7 н/о н/о +42.1 +5.6 11 +39 +39 очень
жарко
1005.1 992.0
11 22.01 В 3 н/о н/о +39.3 +5.8 13 +37 +37 очень
жарко
1005.3 992.2
14 22.01 В 4 н/о н/о +35.6 +9.9 21 +34 +34 очень
жарко
1006.4 993.3
13 22.01 В 4 н/о н/о +37.3 +9.0 18 +36 +36 очень
жарко
1006.5 993.4
16 22.01 Ю 5 н/о н/о +35.6 +9.2 20 +34 +34 очень
жарко
1006.5 993.4
17 22.01 ЮЗ 6 н/о н/о +35.4 +12.4 25 +35 +35 очень
жарко
1006.8 993.7
20 22.01 Ю 3 н/о н/о +32.0 +11.2 28 +32 +32 жарко 1007.0 993.9
19 22.01 Ю 5 н/о н/о +33.4 +11.3 26 +33 +33 жарко 1006.8 993.7
22 22.01 ЮВ 2 н/о н/о +35.7 +10.7 22 +35 +35 очень
жарко
1007.8 994.7
23 22.01 ЮВ 3 н/о н/о +38.7 +10.1 18 +37 +37 очень
жарко
1007.9 994.8
02 23.01 С 5 н/о н/о +42.9 +8.6 13 +41 +41 опасность
перегрева
1006.6 993.5
01 23.01 С 3 н/о н/о +42.8 +8.5 13 +41 +41 опасность
перегрева
1007.2 994.1
04 23.01 СВ 5 н/о н/о +45.3 +8.0 11 +43 +43 опасность
перегрева
1005.0 991.9
05 23.01 С 6 н/о н/о +45.8 +6.9 10 +43 +43 опасность
перегрева
1004.1 991.0
08 23.01 СВ 3 н/о н/о +38.7 +20.5 35 +45 +45 опасность
перегрева
1002.9 989.9
07 23.01 В 21 н/о н/о +40.0 +12.8 20 +40 +40 очень
душно
1002.4 989.4
10 23.01 З 3 н/о н/о +37.8 +14.4 25 +39 +39 очень
душно
1004.2 991.1
11 23.01 З 5 н/о н/о +35.8 +15.0 29 +37 +37 душно 1005.4 992.3
14 23.01 СЗ 6 н/о н/о +33.9 +14.9 32 +36 +36 душно 1005.6 992.5
13 23.01 СЗ 7 н/о н/о +34.3 +14.7 31 +36 +36 душно 1005.7 992.6
16 23.01 СЗ 2 н/о н/о +31.2 +16.4 41 +34 +34 душно 1004.8 991.7
17 23.01 штиль 0 н/о н/о +29.2 +18.6 53 +34 +34 очень
душно
1004.0 990.9
20 23.01 С 2 н/о н/о +28.4 +18.2 54 +33 +33 очень
душно
1004.7 991.6
19 23.01 СЗ 3 н/о н/о +27.6 +20.2 64 +34 +34 очень
душно
1004.1 991.0

 

Местоположение метеостанции Однадатта (Южная Австралия, Австралия): широта -27.55 долгота 135.45 высота над уровнем моря 117 м.

В архиве по умолчанию представлена погода в Однадатте за последнюю неделю. Архивные данные за месяц целиком и за предыдущие месяцы, начиная с января 2011 года, Вы можете получить, выбрав интересующий диапазон дат из раскрывающегося списка и нажав кнопку "Ввод!".


*Определитесь, кто Вы:
робот инопланетянин человек

Внимание! Время в таблицах - всемирное. Для получения местного времени необходимо прибавить поправку, которая равна 9.5 ч.

Смотрите также архив погоды в соседних городах и на ближайших метеорологических станциях:

Погода в Кубер-Педи (Южная Австралия, Австралия) (180 км)
Погода в Марри (Южная Австралия, Австралия) (346 км)
Погода в Эрнабелле (Южная Австралия, Австралия) (354 км)
Погода в Олимпик Дэм (Южная Австралия, Австралия) (354 км)
Погода в Таркуле (Южная Австралия, Австралия) (363 км)
Погода на Аэродроме Вумера (Южная Австралия, Австралия) (422 км)
Погода в Бердсвилле (Квинсленд, Австралия) (429 км)
Погода в Ли-Крике (Южная Австралия, Австралия) (445 км)
Погода в Элис-Спрингсе (Северная территория, Австралия) (446 км)
Погода в Мумбе (Южная Австралия, Австралия) (471 км)

Пояснения к столбцам:

Ветер - указаны скорость ветра в м/с - средняя за 10 мин, порывы в срок и между сроками (в фигурных скобках) и направление, откуда дует ветер: С - северный, СВ - северо-восточный, В - восточный, ЮВ - юго-восточный, Ю - южный, ЮЗ - юго-западный, З - западный, СЗ - северо-западный.
Видимость - горизонтальная дальность видимости в метрах или километрах. При видимости от 1 до 10 км при отсутствии осадков обычно наблюдается дымка, при ухудшении видимости до 1 км и менее - туман. В сухую погоду видимость может ухудшаться дымом, пылью или мглою.
Явления - указаны атмосферные явления, наблюдавшиеся в срок или в последний час перед сроком; фигурными скобками обозначены явления, наблюдавшиеся между сроками (за 1-3 часа до срока); квадратными скобками обозначены град или гололедные отложения с указанием их диаметра в мм.
Облачность - указаны через наклонную черту общая и нижняя облачность в баллах и высота нижней границы облаков в метрах; квадратными скобками обозначены формы облаков: Ci - перистые, Cs - перисто-слоистые, Cc - перисто-кучевые, Ac - высококучевые, As - высокослоистые, Sc - слоисто-кучевые, Ns - слоисто-дождевые, Cu - кучевые, Cb - кучево-дождевые. Подробнее классификацию облаков см. в Атласе облаков (PDF).
T - Температура воздуха - температура, измеренная на высоте 2 м над землей.
Td - Температура точки росы - температура, при понижении до которой содержащийся в воздухе водяной пар достигнет насыщения.
f - Относительная влажность воздуха - влажноcть воздуха, измеренная на высоте 2 м над землей.
Te - Эффективная температура - температура, которую ощущает одетый по сезону человек в тени. Характеристика душности погоды. При расчете учитывается влияние влажности воздуха и скорости ветра на теплоощущения человека.
Tes - Эффективная температура на солнце - температура, которую ощущает человек, с поправкой на солнечный нагрев. Характеристика знойности погоды. Зависит от высоты солнца над горизонтом, облачности и скорости ветра. Ночью, в пасмурную погоду, а также при ветре 12 м/с и более поправка равна нулю.
P - Атмосферное давление - приведенное к уровню моря атмосферное давление.
Po - Атмосферное давление - измеренное на уровне метеостанции атмосферное давление.
Tmin - Минимальная температура - минимум температуры воздуха на высоте 2 м над землей.
Tmax - Максимальная температура - максимум температуры воздуха на высоте 2 м над землей.
R - Количество осадков - Количество выпавших осадков за период времени, мм. При наведении курсора мыши на число - период времени, за который выпало указанное количество осадков.
R24 - Количество осадков - Количество выпавших осадков за 24 часа, мм.
S - Снежный покров - Высота снежного покрова, см. При наведении курсора мыши на число - состояние снежного покрова и степень покрытия местности в баллах.